Location: Unspecified
(0.0000°N, 0.0000°E)
Time: 01:25:29
(UTC+00:00)

Altair - Pass Details

Date: 21 November 2019
Orbit: 1502 x 1682 km, 47.2° (Epoch: 10 December)

Event Time Altitude Azimuth Distance (km) Brightness Sun altitude
Rises 22:22:59 0° 212° (SSW) 4,832 10.5 -61.5°
Reaches altitude 10° 22:26:13 10° 208° (SSW) 3,820 9.8 -62.1°
Enters shadow 22:27:02 13° 206° (SSW) 3,571 9.6 -62.2°
